User: anonymous   Login
Location: Unspecified
(0.0000°N, 0.0000°E)
Time: 20:48:58
(UTC+00:00)
Language:

ExactView-1 - Orbit

View from above orbital plane
View from above orbital plane
View from above satellite
View from above satellite

Ground track
Ground track

The orbit data is extracted from the following two-line orbital elements,

1 38709U 12039C   18344.45520360  .00000007  00000-0  23913-4 0  9996
2 38709  99.1424 346.3376 0011446 135.9565 224.2524 14.23980058331862
Epoch (UTC): 10 December 2018 10:55:29
Eccentricity: 0.0011446
inclination: 99.1424°
perigee height: 803 km
apogee height: 820 km
right ascension of ascending node: 346.3376°
argument of perigee: 135.9565°
revolutions per day: 14.23980058
mean anomaly at epoch: 224.2524°
orbit number at epoch: 33186

The dashed part of the orbit path shows where the satellite is in the earth's shadow,  

DLR